Tracking 28125 objects as of 2-Oct-2023
HD Live streaming from Space Station
objects crossing your sky now

STARLINK-5464

Track STARLINK-5464 now!
10-day predictions
STARLINK-5464 is classified as:


NORAD ID: 54758
Int'l Code: 2022-175A
Perigee: 545.6 km
Apogee: 548.1 km
Inclination: 53.2 °
Period: 95.4 minutes
Semi major axis: 6917 km
RCS: Unknown
Launch date: December 17, 2022
Source: United States (US)
Launch site: AIR FORCE EASTERN TEST RANGE (AFETR)
Your satellite tracking list
Your tracking list is empty




NASA's NSSDC Master Catalog

Two Line Element Set (TLE):
1 54758U 22175A   23275.46382538  .00000177  00000-0  29242-4 0  9992
2 54758  53.2161  71.2018 0001795  98.5833 261.5363 15.08838083 42305
Source of the keplerian elements: AFSPC